TimeCDT,TemperatureF,Dew PointF,Humidity,Sea Level PressureIn,VisibilityMPH,Wind Direction,Wind SpeedMPH,Gust SpeedMPH,PrecipitationIn,Events,Conditions,WindDirDegrees,DateUTC
12:53 AM,63.0,59.0,87,29.94,10.0,Calm,Calm,-,N/A,,Clear,0,2013-06-03 05:53:00
1:53 AM,64.0,57.9,80,29.95,10.0,WNW,4.6,-,N/A,,Clear,300,2013-06-03 06:53:00
2:53 AM,63.0,57.9,84,29.95,10.0,NW,4.6,-,N/A,,Clear,310,2013-06-03 07:53:00
3:53 AM,60.1,57.0,90,29.96,10.0,NW,4.6,-,N/A,,Clear,310,2013-06-03 08:53:00
4:53 AM,61.0,57.0,87,29.96,10.0,NW,3.5,-,N/A,,Clear,310,2013-06-03 09:53:00
5:53 AM,60.1,57.0,90,29.97,10.0,NW,3.5,-,N/A,,Clear,310,2013-06-03 10:53:00
6:53 AM,62.1,57.9,86,29.97,10.0,Calm,Calm,-,N/A,,Clear,0,2013-06-03 11:53:00
7:53 AM,66.9,62.1,84,29.98,10.0,NNE,4.6,-,N/A,,Clear,30,2013-06-03 12:53:00
8:35 AM,69.8,62.6,78,30.00,10.0,ENE,5.8,-,N/A,,Clear,60,2013-06-03 13:35:00
8:53 AM,70.0,64.0,81,29.99,10.0,Variable,3.5,-,N/A,,Clear,0,2013-06-03 13:53:00
9:53 AM,73.9,64.9,73,29.98,10.0,East,4.6,-,N/A,,Clear,80,2013-06-03 14:53:00
10:33 AM,75.2,66.2,73,29.98,10.0,East,8.1,-,N/A,,Mostly Cloudy,100,2013-06-03 15:33:00
10:53 AM,75.9,64.9,69,29.97,10.0,SE,5.8,-,N/A,,Mostly Cloudy,140,2013-06-03 15:53:00
11:53 AM,80.1,62.1,54,29.96,10.0,SSE,3.5,-,N/A,,Scattered Clouds,150,2013-06-03 16:53:00
12:53 PM,82.9,61.0,47,29.95,10.0,Variable,4.6,-,N/A,,Clear,0,2013-06-03 17:53:00
1:53 PM,84.0,61.0,46,29.92,10.0,Variable,3.5,-,N/A,,Partly Cloudy,0,2013-06-03 18:53:00
2:53 PM,84.0,62.1,47,29.90,10.0,NE,4.6,-,N/A,,Clear,40,2013-06-03 19:53:00
3:53 PM,86.0,61.0,43,29.88,10.0,NE,3.5,-,N/A,,Partly Cloudy,50,2013-06-03 20:53:00
4:53 PM,86.0,62.1,44,29.87,10.0,Variable,4.6,-,N/A,,Partly Cloudy,0,2013-06-03 21:53:00
5:53 PM,84.9,62.1,46,29.86,10.0,SSE,5.8,-,N/A,,Clear,160,2013-06-03 22:53:00
6:53 PM,84.9,60.1,43,29.86,10.0,East,5.8,-,N/A,,Clear,100,2013-06-03 23:53:00
7:53 PM,80.1,63.0,56,29.87,10.0,ESE,4.6,-,N/A,,Clear,110,2013-06-04 00:53:00
8:53 PM,73.9,64.0,71,29.88,10.0,ESE,4.6,-,N/A,,Clear,110,2013-06-04 01:53:00
9:53 PM,73.0,63.0,71,29.89,10.0,SSE,5.8,-,N/A,,Clear,150,2013-06-04 02:53:00
10:53 PM,72.0,63.0,73,29.91,10.0,SE,4.6,-,N/A,,Clear,130,2013-06-04 03:53:00
11:53 PM,72.0,62.1,71,29.91,10.0,ESE,6.9,-,N/A,,Clear,120,2013-06-04 04:53:00